TimeEDT,TemperatureF,Dew PointF,Humidity,Sea Level PressureIn,VisibilityMPH,Wind Direction,Wind SpeedMPH,Gust SpeedMPH,PrecipitationIn,Events,Conditions,WindDirDegrees,DateUTC
12:15 AM,53.2,37.8,56,29.63,10.0,WSW,5.8,-,N/A,,Overcast,240,2013-11-02 04:15:00
12:35 AM,53.1,37.8,56,29.63,10.0,SW,4.6,-,N/A,,Overcast,230,2013-11-02 04:35:00
12:55 AM,52.7,37.9,57,29.63,10.0,SW,3.5,-,N/A,,Overcast,230,2013-11-02 04:55:00
1:15 AM,52.7,38.1,58,29.62,10.0,West,6.9,-,N/A,,Overcast,260,2013-11-02 05:15:00
1:35 AM,52.7,38.7,59,29.62,10.0,West,6.9,-,N/A,,Overcast,260,2013-11-02 05:35:00
1:55 AM,51.3,38.3,61,29.62,10.0,Calm,Calm,-,N/A,,Mostly Cloudy,0,2013-11-02 05:55:00
2:15 AM,51.1,38.7,63,29.62,10.0,West,4.6,-,N/A,,Mostly Cloudy,270,2013-11-02 06:15:00
2:35 AM,51.4,38.3,61,29.62,10.0,Calm,Calm,-,N/A,,Overcast,0,2013-11-02 06:35:00
2:55 AM,50.9,38.5,62,29.62,10.0,West,4.6,-,N/A,,Overcast,270,2013-11-02 06:55:00
3:15 AM,50.7,38.7,63,29.61,10.0,Calm,Calm,-,N/A,,Mostly Cloudy,0,2013-11-02 07:15:00
3:35 AM,48.9,38.7,68,29.61,10.0,Calm,Calm,-,N/A,,Mostly Cloudy,0,2013-11-02 07:35:00
3:55 AM,48.4,39.2,71,29.61,10.0,SE,5.8,-,N/A,,Overcast,140,2013-11-02 07:55:00
4:15 AM,48.4,39.2,71,29.61,10.0,Calm,Calm,-,N/A,,Overcast,0,2013-11-02 08:15:00
4:35 AM,48.6,39.4,71,29.61,10.0,Calm,Calm,-,N/A,,Overcast,0,2013-11-02 08:35:00
4:55 AM,48.4,39.2,71,29.62,10.0,Calm,Calm,-,N/A,,Overcast,0,2013-11-02 08:55:00
5:15 AM,46.6,39.2,75,29.62,10.0,SSE,3.5,-,N/A,,Overcast,150,2013-11-02 09:15:00
5:35 AM,46.6,39.2,75,29.63,10.0,SSE,3.5,-,N/A,,Overcast,150,2013-11-02 09:35:00
5:55 AM,46.4,39.2,76,29.63,10.0,Calm,Calm,-,N/A,,Overcast,0,2013-11-02 09:55:00
6:15 AM,45.5,39.2,79,29.63,10.0,Calm,Calm,-,N/A,,Overcast,0,2013-11-02 10:15:00
6:35 AM,44.8,39.2,81,29.62,10.0,SE,4.6,-,N/A,,Overcast,130,2013-11-02 10:35:00
6:55 AM,45.5,38.8,78,29.62,10.0,SSE,3.5,-,N/A,,Overcast,150,2013-11-02 10:55:00
7:15 AM,45.5,38.5,76,29.63,10.0,SSE,6.9,-,N/A,,Mostly Cloudy,160,2013-11-02 11:15:00
7:35 AM,45.5,38.3,76,29.64,10.0,SSE,6.9,-,N/A,,Clear,160,2013-11-02 11:35:00
7:55 AM,44.8,38.3,78,29.64,10.0,South,5.8,-,N/A,,Scattered Clouds,170,2013-11-02 11:55:00
8:15 AM,46.8,39.6,76,29.65,10.0,Calm,Calm,-,N/A,,Overcast,0,2013-11-02 12:15:00
8:35 AM,45.9,39.2,78,29.66,10.0,SSE,5.8,-,N/A,,Overcast,160,2013-11-02 12:35:00
8:55 AM,46.2,39.2,76,29.67,10.0,SSE,4.6,-,N/A,,Overcast,150,2013-11-02 12:55:00
9:15 AM,45.7,39.4,79,29.66,10.0,SE,5.8,-,N/A,,Overcast,130,2013-11-02 13:15:00
9:35 AM,46.6,39.4,76,29.66,10.0,SSE,4.6,-,N/A,,Overcast,160,2013-11-02 13:35:00
9:55 AM,47.5,39.6,74,29.65,10.0,SSE,8.1,-,N/A,,Overcast,160,2013-11-02 13:55:00
10:15 AM,47.7,39.4,73,29.65,10.0,SE,4.6,-,N/A,,Overcast,140,2013-11-02 14:15:00
10:35 AM,49.1,39.9,71,29.65,10.0,SSE,5.8,-,N/A,,Overcast,150,2013-11-02 14:35:00
10:55 AM,49.1,39.4,69,29.65,10.0,SE,4.6,-,N/A,,Mostly Cloudy,140,2013-11-02 14:55:00
11:15 AM,49.6,40.1,70,29.65,10.0,SE,6.9,-,N/A,,Mostly Cloudy,140,2013-11-02 15:15:00
11:35 AM,50.0,40.1,69,29.65,10.0,ESE,4.6,-,N/A,,Overcast,120,2013-11-02 15:35:00
11:55 AM,51.8,40.5,65,29.64,10.0,Calm,Calm,-,N/A,,Overcast,0,2013-11-02 15:55:00
1:15 PM,54.0,37.9,55,29.63,10.0,WSW,6.9,-,N/A,,Overcast,250,2013-11-02 17:15:00
1:35 PM,53.2,37.9,56,29.62,10.0,SW,4.6,-,N/A,,Overcast,220,2013-11-02 17:35:00
1:55 PM,53.1,38.5,58,29.62,10.0,WSW,4.6,-,N/A,,Overcast,240,2013-11-02 17:55:00
2:15 PM,53.1,38.3,57,29.62,10.0,SSW,4.6,-,N/A,,Overcast,210,2013-11-02 18:15:00
2:35 PM,52.7,38.7,59,29.62,10.0,SSW,3.5,-,N/A,,Overcast,200,2013-11-02 18:35:00
2:55 PM,52.7,38.8,59,29.62,10.0,Calm,Calm,-,N/A,,Overcast,0,2013-11-02 18:55:00
3:15 PM,52.0,39.2,62,29.62,10.0,Calm,Calm,-,N/A,,Overcast,0,2013-11-02 19:15:00
3:35 PM,51.6,39.2,63,29.63,10.0,West,3.5,-,N/A,,Overcast,270,2013-11-02 19:35:00
3:55 PM,49.3,42.1,76,29.63,10.0,WNW,9.2,-,N/A,,Light Drizzle,290,2013-11-02 19:55:00
4:15 PM,46.9,42.1,83,29.65,7.0,WNW,5.8,-,N/A,,Light Drizzle,290,2013-11-02 20:15:00
4:35 PM,45.7,41.9,87,29.66,10.0,West,4.6,-,N/A,,Light Drizzle,260,2013-11-02 20:35:00
4:55 PM,44.8,41.2,87,29.66,10.0,WNW,8.1,-,N/A,,Drizzle,290,2013-11-02 20:55:00
5:15 PM,44.2,40.5,87,29.67,10.0,North,4.6,-,N/A,,Light Drizzle,10,2013-11-02 21:15:00
5:35 PM,43.7,39.6,85,29.67,10.0,North,6.9,-,N/A,Rain,Light Rain,360,2013-11-02 21:35:00
5:55 PM,43.0,39.0,86,29.68,10.0,Calm,Calm,-,N/A,,Light Drizzle,0,2013-11-02 21:55:00
6:15 PM,42.1,37.8,85,29.70,10.0,North,5.8,-,N/A,Rain,Light Rain,360,2013-11-02 22:15:00
6:35 PM,41.0,36.5,84,29.72,10.0,NNW,6.9,-,N/A,Rain,Light Rain,330,2013-11-02 22:35:00
6:55 PM,40.1,36.0,85,29.72,10.0,NNW,9.2,16.1,N/A,Rain,Light Rain,330,2013-11-02 22:55:00
7:15 PM,39.2,34.3,83,29.74,10.0,NNW,8.1,-,N/A,Rain,Light Rain,340,2013-11-02 23:15:00
7:35 PM,37.9,33.4,84,29.76,10.0,NW,8.1,-,N/A,Rain,Rain,320,2013-11-02 23:35:00
7:55 PM,36.9,32.4,84,29.77,10.0,NNW,12.7,-,N/A,Rain,Light Rain,340,2013-11-02 23:55:00
8:15 PM,36.1,32.0,85,29.79,10.0,NNW,8.1,17.3,N/A,,Overcast,330,2013-11-03 00:15:00
8:35 PM,36.1,32.0,85,29.79,10.0,NNW,9.2,-,N/A,,Overcast,330,2013-11-03 00:35:00
8:55 PM,36.3,32.0,84,29.80,10.0,North,8.1,-,N/A,,Overcast,350,2013-11-03 00:55:00
9:15 PM,36.3,32.0,84,29.81,10.0,NNW,8.1,-,N/A,,Overcast,330,2013-11-03 01:15:00
9:35 PM,36.3,31.6,83,29.82,10.0,North,8.1,-,N/A,,Overcast,350,2013-11-03 01:35:00
9:55 PM,36.1,32.0,85,29.83,10.0,NNW,8.1,-,N/A,,Overcast,330,2013-11-03 01:55:00
10:15 PM,36.0,32.0,86,29.84,10.0,NNW,9.2,-,N/A,,Overcast,330,2013-11-03 02:15:00
10:35 PM,36.0,31.1,82,29.85,10.0,NNW,9.2,-,N/A,,Overcast,340,2013-11-03 02:35:00
10:55 PM,35.6,30.0,80,29.86,10.0,NNW,9.2,-,N/A,,Overcast,340,2013-11-03 02:55:00
11:15 PM,35.1,29.3,80,29.86,10.0,North,8.1,-,N/A,,Overcast,360,2013-11-03 03:15:00
11:35 PM,35.1,29.8,81,29.85,10.0,NNW,6.9,-,N/A,,Overcast,330,2013-11-03 03:35:00
11:55 PM,35.1,29.7,81,29.85,10.0,NNW,6.9,-,N/A,,Overcast,340,2013-11-03 03:55:00